Estación Meteorológica Peña el Pijo (Robertgarden) [ 07/12/20 06:07:51 CEST ]

Fecha Hora Presion(HPa) Temp (°C) Humedad % Rocio (°C) Viento ( m/s) Direccion Lluvia 1Hora(mm) Lluvia 24H(mm) LLuvia Total(mm)
2020-Jan-15 01:09:13 1011.500 - - - - N     39.88
2020-Jan-15 02:09:51 1011.400 - - - - N     39.88
2020-Jan-15 03:12:09 1011.500 - - - - N     39.88
2020-Jan-15 04:08:54 1011.500 - - - - N     39.88
2020-Jan-15 05:09:30 1011.400 - - - - N     39.88
2020-Jan-15 06:09:12 1011.600 - - - - N     39.88
2020-Jan-15 07:09:24 1011.900 - - - - N     39.88
2020-Jan-15 08:09:20 1012.700 - - - - N     39.88
2020-Jan-15 09:09:15 1012.900 - - - - N     39.88
2020-Jan-15 10:09:10 1013.500 - - - - N     39.88
2020-Jan-15 11:09:26 1013.900 - - - - N     39.88
2020-Jan-15 12:09:22 1013.800 - - - - N     39.88
2020-Jan-15 13:09:28 1013.800 - - - - N     39.88
2020-Jan-15 14:09:09 1013.300 - - - - N     39.88
2020-Jan-15 15:09:00 1013.400 - - - - N     39.88
2020-Jan-15 16:09:27 1013.600 - - - - N     39.88
2020-Jan-15 17:09:15 1014.100 - - - - N     39.88
2020-Jan-15 18:09:00 1014.600 - - - - N     39.88
2020-Jan-15 19:09:00 1015.400 - - - - N     39.88
2020-Jan-15 20:09:20 1015.800 - - - - N     39.88
2020-Jan-15 21:09:28 1015.800 - - - - N     39.88
2020-Jan-15 22:09:27 1016.200 - - - - N     39.88
2020-Jan-15 23:09:25 1016.400 - - - - N     39.88

Temperatura Máxima:    Temperatura Mínima:
Presión Máxima:1016.400 Hpa    Presión Mínima:1011.400 Hpa


Volver